Probability
0 0 0 0 0 0 0 0 0 0 0 0 0 0 0 0 0 0 0 0 0 0 0 0 0 0 0 0 0 0 0 0 0 0 0 0 0 0 0 0 0 0 0
0 0 0 0 0 0 0 0 0 0 0 0 0 0 0 0 0 0 0 0 0 0 0 0 0 0 0 0 0 0 0 0 0 0 0 0 0 0 0 0 0 0 0
0 0 0 0 0 0 0 0 0 0 0 0 0 0 0 0 0 0 0 0 0 0 0 0 0 0 0 0 0 0 0 0 0 0 0 0 0 0 0 0 0 0 0
0 0 0 0 0 0 0 0 0 0 0 0 0 0 0 0 0 0 0 0 0 0 0 0 0 0 0 0 0 0 0 0 0 0 0 0 0 0 0 0 0 0 0
0 0 0 0 0 0 0 0 0 0 0 0 0 0 0 0 0 0 0 0 0 0 0 0 0 0 0 0 0 0 0 0 0 0 0 0 0 0 0 0 0 0 0
0 0 0 0 0 0 0 0 0 0 0 0 0 0 0 0 0 0 0 0 0 0 0 0 0 0 0 0 0 0 0 0 0 0 0 0 0 0 0 0 0 0 0
0 0 0 0 0 0 0 0 0 0 0 0 0 0 0 0 0 0 0 0 0 0 0 0 0 0 0 0 0 0 0 0 0 0 0 0 0 0 0 0 0 0 0
0 0 0 0 0 0 0 0 0 0 0 0 0 0 0 0 0 0 0 0 0 0 0 0 0 0 0 0 0 0 0 0 0 0 0 0 0 0 0 0 0 0 0
0 0 0 0 0 0 0 0 0 0 0 0 0 0 0 0 0 0 0 0 0 0 0 0 0 0 0 0 0 0 0 0 0 0 0 0 0 0 0 0 0 0 0
0 0 0 0 0 0 0 0 0 0 0 0 0 0 0 0 0 0 0 0 0 0 0 0 0 0 0 0 0 0 0 0 0 0 0 0 0 0 0 0 0 0 0
0 0 0 0 0 0 0 0 0 0 0 0 0 0 0 0 0 0 0 0 0 0 0 0 0 0 0 0 0 0 0 0 0 0 0 0 0 0 0 0 0 0 0
0 0 0 0 0 0 0 0 0 0 0 0 0 0 0 0 0 0 0 0 0 0 0 0 0 0 0 0 0 0 0 0 0 0 0 0 0 0 0 0 0 0 0
0 0 0 0 0 0 0 0 0 0 0 0 0 0 0 0 0 0 0 0 0 0 0 0 0 0 0 0 0 0 0 0 0 0 0 0 0 0 0 0 0 0 0
0 0 0 0 0 0 0 0 0 0 0 0 0 0 0 0 0 0 0 0 0 0 0 0 0 0 0 0 0 0 0 0 0 0 0 0 0 0 0 0 0 0 0
0 0 0 0 0 0 0 0 0 0 0 0 0 0 0 0 0 0 0 0 0 0 0 0 0 0 0 0 0 0 0 0 0 0 0 0 0 0 0 0 0 0 0
0 0 0 0 0 0 0 0 0 0 0 0 0 0 0 0 0 0 0 0 0 0 0 0 0 0 0 0 0 0 0 0 0 0 0 0 0 0 0 0 0 0 0
0 0 0 0 0 0 0 0 0 0 0 0 0 0 0 0 0 0 0 0 0 0 0 0 0 0 0 0 0 0 0 0 0 0 0 0 0 0 0 0 0 0 0
0 0 0 0 0 0 0 0 0 0 0 0 0 0 0 0 0 0 0 0 0 0 0 0 0 0 0 0 0 0 0 0 0 0 0 0 0 0 0 0 0 0 0
0 0 0 0 0 0 0 0 0 0 0 0 0 0 0 0 0 0 0 0 0 0 0 0 0 0 0 0 0 0 0 0 0 0 0 0 0 0 0 0 0 0 0
0 0 0 0 0 0 0 0 0 0 0 0 0 0 0 0 0 0 0 0 0 0 0 0 0 0 0 0 0 0 0 0 0 0 0 0 0 0 0 0 0 0 0
0 0 0 0 0 0 0 0 0 0 0 0 0 0 0 0 0 0 0 0 0 0 0 0 0 0 0 0 0 0 0 0 0 0 0 0 0 0 0 0 0 0 0
0 0 0 0 0 0 0 0 0 0 0 0 0 0 0 0 0 0 0 0 0 0 0 0 0 0 0 0 0 0 0 0 0 0 0 0 0 0 0 0 0 0 0
0 0 0 0 0 0 0 0 0 0 0 0 0 0 0 0 0 0 0 0 0 0 0 0 0 0 0 0 0 0 0 0 0 0 0 0 0 0 0 0 0 0 0
0 0 0 0 0 0 0 0 0 0 0 0 0 0 0 0 0 0 0 0 0 0 0 0 0 0 0 0 0 0 0 0 0 0 0 0 0 0 0 0 0 0 0
0 0 0 0 0 0 0 0 0 0 0 0 0 0 0 0 0 0 0 0 0 0 0 0 0 0 0 0 0 0 0 0 0 0 0 0 0 0 0 0 0 0 0
0 0 0 0 0 0 0 0 0 0 0 0 0 0 0 0 0 0 0 0 0 0 0 0 0 0 0 0 0 0 0 0 0 0 0 0 0 0 0 0 0 0 0
Wind_Speed
5 4 3 3 4 3 3 3 4 4 4 5 5 6 6 6 6 6 4 4 7 10 11 12 12 12 12 12 12 12 12 12 12 12 12 12 12 13 13 13 14 14 15
5 5 5 4 4 3 3 4 5 4 4 4 6 6 7 7 7 7 6 5 5 7 9 10 10 10 11 11 11 11 11 12 12 12 12 13 13 13 13 14 14 15 15
6 5 5 4 4 3 4 4 4 4 4 5 6 6 6 7 8 8 7 6 4 3 4 7 7 8 9 10 11 11 12 12 13 13 13 13 14 14 14 15 15 15 16
7 5 4 4 4 3 3 3 3 4 4 5 5 5 6 6 8 7 6 5 4 3 1 2 5 7 8 10 11 11 12 13 13 14 14 14 14 15 15 16 16 16 17
7 6 4 4 4 3 3 3 3 4 4 4 5 6 6 6 6 5 5 4 2 2 2 1 2 5 8 10 11 12 13 14 14 15 15 15 16 16 17 17 17 17 17
6 6 4 4 3 3 3 3 3 3 3 4 5 6 6 5 4 4 3 2 2 2 2 3 3 3 6 10 12 13 14 15 15 16 16 16 17 17 18 18 18 19 19
6 5 4 4 3 3 3 3 3 3 2 3 4 5 4 3 3 2 2 2 2 3 3 4 5 6 5 9 10 12 14 15 16 17 17 17 18 18 19 19 19 20 20
6 5 5 4 4 3 3 3 2 2 1 1 3 4 4 2 1 2 3 3 4 4 4 6 7 7 8 6 7 12 13 15 17 17 18 18 19 19 19 20 20 21 21
6 6 5 4 4 3 3 3 2 3 2 1 2 3 3 4 5 3 4 5 5 5 6 7 8 9 9 7 8 9 13 16 17 18 19 19 20 20 21 21 21 21 22
6 6 6 5 4 3 3 3 2 2 3 2 1 2 4 4 4 5 4 4 6 7 9 8 8 9 9 7 8 12 13 16 18 19 20 20 21 21 22 22 22 22 23
6 6 6 5 5 3 3 3 3 2 2 3 2 2 4 4 6 5 7 7 6 6 7 8 8 8 8 8 7 9 14 17 19 20 20 21 22 23 23 23 23 23 23
6 7 6 5 5 4 4 3 3 3 3 3 3 3 4 4 4 5 8 9 9 7 8 7 7 7 7 8 9 12 15 18 19 20 20 21 22 23 23 24 24 24 24
6 7 6 6 5 4 4 3 3 3 4 4 4 4 4 5 5 6 8 9 10 9 8 6 6 6 7 7 8 12 16 19 19 20 21 21 22 23 23 24 24 24 25
7 8 7 6 5 5 4 4 3 4 4 5 5 5 5 5 5 6 6 8 9 8 8 9 7 7 7 7 10 15 14 18 18 20 21 22 22 23 23 24 24 24 25
6 8 7 6 6 5 5 4 4 4 4 5 5 6 6 5 5 6 6 6 7 9 10 9 7 6 7 9 12 13 14 17 20 22 22 22 22 22 23 23 24 24 24
8 8 7 6 6 5 5 5 4 4 5 5 5 6 7 6 6 6 6 7 8 10 11 8 10 11 12 10 15 15 15 21 21 22 21 21 22 23 23 24 24 24 24
9 8 7 6 6 6 5 5 6 5 6 7 6 7 8 8 7 7 7 8 8 9 13 12 11 12 14 14 13 13 13 14 13 20 21 22 23 23 24 24 24 24 24
8 8 7 7 6 6 6 6 6 7 7 8 8 8 9 7 10 9 8 9 9 10 12 15 12 11 14 14 15 15 13 12 13 18 22 23 24 24 24 24 23 23 23
8 8 7 7 6 6 6 7 7 8 8 9 9 10 10 10 11 9 10 10 9 10 11 12 13 11 11 12 14 14 15 13 13 14 19 21 22 23 24 24 24 23 23
8 8 7 7 6 6 7 7 7 8 9 9 10 10 11 11 12 12 10 11 11 11 11 12 12 12 11 13 12 12 12 11 12 12 15 17 20 23 23 23 22 22 21
8 7 7 7 7 6 6 6 6 8 9 10 11 11 12 13 15 14 11 11 11 10 10 11 12 12 11 11 11 11 12 12 13 12 12 12 12 11 12 16 18 19 20
8 7 7 7 7 6 8 11 10 10 10 11 12 12 12 13 15 18 20 20 18 15 13 12 12 13 15 14 12 11 12 13 13 9 11 12 11 12 12 12 16 20 21
8 7 7 8 8 8 10 12 13 12 12 12 13 12 10 11 14 13 15 18 19 21 21 17 16 16 16 15 14 15 14 14 14 11 11 13 12 13 12 12 19 21 21
7 7 7 8 8 9 11 13 13 13 13 13 13 13 14 14 12 12 12 13 15 15 16 14 13 15 16 15 15 15 15 15 14 11 11 12 11 11 11 11 16 18 19
7 7 7 8 9 9 11 12 13 10 11 13 13 13 14 14 16 18 15 15 16 14 16 20 22 22 24 24 20 12 11 12 12 10 9 10 11 11 11 11 10 13 13
6 6 7 8 9 10 10 12 13 9 11 11 11 11 14 16 18 19 15 14 15 14 14 14 15 17 16 16 19 13 10 11 11 10 8 8 9 8 8 7 6 7 8
Wind_Direction
196 203 215 219 230 237 236 246 258 266 269 279 283 287 291 292 292 295 292 280 295 303 306 308 309 310 310 309 308 307 307 306 305 302 298 295 291 290 288 286 283 278 274
201 208 217 222 231 235 245 256 264 272 279 282 284 286 288 291 290 293 295 288 270 293 306 310 312 314 315 316 317 317 316 315 314 313 310 306 299 294 291 289 287 285 282
205 210 217 221 227 232 241 256 263 271 277 278 280 287 288 289 291 291 293 294 292 272 305 318 322 326 329 328 328 328 326 322 317 314 311 308 304 299 294 290 289 288 286
206 209 215 222 223 223 232 244 258 263 268 276 287 291 287 289 288 294 290 288 292 299 273 0 343 343 340 334 330 327 324 320 315 312 309 306 305 301 297 293 290 289 287
203 208 216 221 213 212 223 234 252 271 282 289 291 291 289 289 293 290 286 289 286 290 304 99 321 333 335 330 325 321 316 311 308 306 304 303 301 299 296 294 291 288 287
197 203 204 207 201 207 218 231 250 266 289 302 297 290 289 292 286 282 279 260 247 272 292 308 301 306 313 319 318 315 312 309 306 303 302 300 297 295 293 291 290 288 286
186 189 189 190 198 212 222 233 248 256 272 312 297 295 282 265 280 270 273 272 263 276 288 299 310 315 309 308 305 312 312 309 306 302 300 298 296 293 291 289 287 286 284
174 177 185 181 185 196 206 213 227 258 265 297 305 308 307 266 193 269 283 282 287 285 284 296 308 309 308 306 308 306 308 309 306 304 301 299 296 293 291 289 286 285 283
167 170 178 177 176 188 194 198 212 241 263 251 291 303 308 313 322 275 277 284 288 288 294 301 303 304 303 301 301 305 311 311 307 304 301 299 297 294 292 290 288 285 284
161 165 167 166 167 175 179 183 212 239 259 262 249 260 279 296 293 302 280 273 286 293 295 298 300 301 299 299 298 300 307 308 307 305 304 302 299 296 294 292 291 289 286
158 161 162 162 165 170 174 178 197 220 246 265 268 266 264 265 260 273 290 298 293 284 289 294 294 293 296 296 297 305 310 307 305 304 303 302 300 298 296 294 292 291 289
160 164 165 166 168 167 172 183 200 218 239 251 257 257 262 265 270 268 280 294 298 300 298 289 285 286 292 295 295 303 304 303 302 302 302 301 299 297 295 294 292 290 288
168 169 170 173 171 171 176 187 205 223 234 246 253 260 262 264 274 275 279 288 293 297 293 282 276 282 289 291 295 305 299 297 297 298 299 298 297 295 293 292 291 289 288
169 168 173 174 173 175 182 196 215 225 238 245 254 258 261 263 263 262 271 287 294 291 285 286 291 285 288 292 299 303 292 293 294 296 296 295 294 292 291 290 289 288 287
159 168 172 174 176 183 195 206 227 231 241 249 254 257 259 261 260 261 263 264 274 289 294 297 295 291 292 293 297 296 295 296 297 295 294 292 292 291 290 289 288 287 286
164 169 175 180 184 193 204 216 233 240 247 251 254 258 260 262 262 259 257 260 259 268 279 288 291 291 294 292 293 294 293 295 291 290 290 291 290 290 289 288 287 286 285
170 175 179 186 195 204 213 224 234 240 250 256 254 257 262 265 266 264 261 261 262 264 273 283 286 292 293 292 293 292 292 292 290 289 290 290 290 290 289 288 287 286 286
175 179 184 194 204 214 223 233 242 245 251 257 260 261 264 265 264 265 264 264 266 268 275 285 290 293 293 294 292 292 292 289 288 290 291 291 290 290 288 287 287 286 286
178 183 192 202 211 220 230 239 247 252 255 258 262 263 265 267 268 268 268 269 271 273 275 281 287 291 291 289 291 289 289 288 289 289 290 288 288 289 289 288 287 285 286
184 191 200 210 218 226 234 242 248 254 258 260 261 261 263 264 267 272 274 274 275 277 276 278 282 286 286 288 288 289 290 288 290 292 289 288 287 287 286 285 285 286 287
191 197 206 216 224 228 233 233 240 249 256 261 262 261 261 261 266 269 270 272 272 271 274 276 280 285 286 288 287 290 290 293 289 289 288 288 290 288 290 288 286 284 285
194 201 213 224 232 234 238 244 252 258 258 261 264 266 266 264 264 266 269 271 273 275 276 276 279 280 284 287 288 287 290 290 290 289 288 289 291 288 287 283 283 284 284
200 211 222 231 241 244 243 254 258 266 268 268 269 271 270 268 270 270 273 275 274 273 272 273 276 277 283 286 288 287 283 283 283 289 289 284 284 283 284 282 284 283 283
207 219 229 238 248 252 251 260 266 267 269 269 269 270 272 274 272 274 276 274 273 272 271 271 270 275 278 281 280 280 281 283 281 276 272 279 284 285 287 286 287 286 286
216 226 235 243 251 257 253 261 269 272 269 269 269 269 270 273 276 278 278 277 277 276 274 273 273 276 279 282 284 285 284 284 284 283 280 278 286 292 291 289 288 290 291
225 233 242 248 255 263 262 264 268 269 270 272 273 271 268 270 276 280 279 279 280 282 283 283 281 280 280 283 284 280 279 280 285 288 286 283 287 297 292 287 295 300 297